When you browse on this site, cookies collect data to enhance your experience and personalize the content and advertising you see.
Visit our Privacy Policy to learn more. By continuing to use the site, you agree to this use of cookies and data.
  • In Hungary
  • List of Countries
  • For 7 days
  • Water Temperature
  • Satellite Maps
  • Weather Map
  • News
  • Weather Widgets
  • user-avatar
    Login

    Hourly Weather Krutye Gorki

    Today, 21 November, Wednesday

    Time Temperature Precipitation Wind Pressure Humidity
    00:00 -4°C° 0 mm 2 mps 756 mmHg 43%
    01:00 -4°C° 0 mm 2 mps 756 mmHg 41%
    02:00 -4°C° 0 mm 2 mps 756 mmHg 41%
    03:00 -4°C° 0 mm 2 mps 755 mmHg 41%
    04:00 -4°C° 0 mm 2 mps 755 mmHg 26%
    05:00 -4°C° 0 mm 2 mps 755 mmHg 28%
    06:00 -5°C° 0 mm 2 mps 754 mmHg 30%
    07:00 -5°C° 0 mm 2 mps 754 mmHg 33%
    08:00 -4°C° 0 mm 2 mps 754 mmHg 37%
    09:00 -4°C° 0 mm 2 mps 753 mmHg 41%
    10:00 -3°C° 0 mm 2 mps 753 mmHg 47%
    11:00 -3°C° 0 mm 2 mps 752 mmHg 52%
    12:00 -2°C° 0 mm 3 mps 752 mmHg 58%
    13:00 -2°C° 0 mm 3 mps 751 mmHg 63%
    14:00 -3°C° 0 mm 4 mps 751 mmHg 68%
    15:00 -3°C° 0 mm 4 mps 750 mmHg 72%
    16:00 -3°C° 0 mm 4 mps 749 mmHg 77%
    17:00 -3°C° 0.2 mm 4 mps 749 mmHg 81%
    18:00 -4°C° 0.2 mm 5 mps 749 mmHg 84%
    19:00 -5°C° 0.2 mm 5 mps 748 mmHg 87%
    20:00 -5°C° 0.2 mm 5 mps 748 mmHg 87%
    21:00 -5°C° 0.2 mm 6 mps 747 mmHg 87%
    22:00 -5°C° 0.2 mm 6 mps 747 mmHg 87%
    23:00 -5°C° 0.1 mm 6 mps 747 mmHg 86%

    Tomorrow, 22 November, Thursday

    Time Temperature Precipitation Wind Pressure Humidity
    00:00 -5°C° 0.1 mm 6 mps 747 mmHg 85%
    01:00 -6°C° 0.1 mm 5 mps 746 mmHg 85%
    02:00 -6°C° 0 mm 5 mps 746 mmHg 85%
    03:00 -6°C° 0 mm 5 mps 746 mmHg 85%
    04:00 -6°C° 0 mm 5 mps 746 mmHg 85%
    05:00 -6°C° 0 mm 5 mps 747 mmHg 86%
    06:00 -7°C° 0 mm 5 mps 747 mmHg 88%
    07:00 -7°C° 0 mm 5 mps 747 mmHg 89%
    08:00 -7°C° 0 mm 5 mps 747 mmHg 86%
    09:00 -7°C° 0 mm 5 mps 748 mmHg 83%
    10:00 -7°C° 0 mm 5 mps 748 mmHg 80%
    11:00 -7°C° 0 mm 5 mps 748 mmHg 77%
    12:00 -6°C° 0 mm 5 mps 748 mmHg 75%
    13:00 -5°C° 0 mm 4 mps 748 mmHg 72%
    14:00 -5°C° 0 mm 4 mps 748 mmHg 72%
    15:00 -5°C° 0 mm 4 mps 748 mmHg 73%
    16:00 -5°C° 0 mm 4 mps 748 mmHg 73%
    17:00 -5°C° 0 mm 4 mps 748 mmHg 73%
    18:00 -5°C° 0 mm 4 mps 748 mmHg 73%
    19:00 -5°C° 0 mm 4 mps 748 mmHg 74%
    20:00 -5°C° 0 mm 4 mps 748 mmHg 74%
    21:00 -7°C° 0 mm 4 mps 748 mmHg 75%
    22:00 -7°C° 0 mm 4 mps 747 mmHg 76%
    23:00 -7°C° 0 mm 4 mps 747 mmHg 77%

    Day after tomorrow, 23 November, Friday

    Time Temperature Precipitation Wind Pressure Humidity
    00:00 -7°C° 0 mm 5 mps 746 mmHg 78%
    01:00 -7°C° 0 mm 5 mps 746 mmHg 79%
    02:00 -8°C° 0 mm 6 mps 745 mmHg 80%
    03:00 -8°C° 0 mm 6 mps 745 mmHg 80%
    04:00 -8°C° 0 mm 6 mps 744 mmHg 81%
    05:00 -8°C° 0.1 mm 7 mps 743 mmHg 81%
    06:00 -8°C° 0.1 mm 7 mps 743 mmHg 82%
    07:00 -8°C° 0.1 mm 8 mps 742 mmHg 83%
    08:00 -8°C° 0.2 mm 8 mps 742 mmHg 83%
    09:00 -8°C° 0.2 mm 8 mps 741 mmHg 83%
    10:00 -8°C° 0.2 mm 9 mps 740 mmHg 83%
    11:00 -8°C° 0.3 mm 9 mps 740 mmHg 82%
    12:00 -8°C° 0.3 mm 9 mps 740 mmHg 81%
    13:00 -6°C° 0.3 mm 9 mps 739 mmHg 80%
    14:00 -8°C° 0.1 mm 9 mps 740 mmHg 80%
    15:00 -9°C° 0.1 mm 9 mps 740 mmHg 80%
    16:00 -9°C° 0.1 mm 9 mps 741 mmHg 80%
    17:00 -10°C° 0.2 mm 10 mps 742 mmHg 78%
    18:00 -12°C° 0.2 mm 12 mps 743 mmHg 77%
    19:00 -14°C° 0.2 mm 13 mps 744 mmHg 75%
    20:00 -15°C° 0 mm 12 mps 746 mmHg 74%
    21:00 -14°C° 0 mm 11 mps 747 mmHg 74%
    22:00 -15°C° 0 mm 10 mps 748 mmHg 74%
    23:00 -14°C° 0 mm 10 mps 750 mmHg 76%

    24 November, Saturday

    Time Temperature Precipitation Wind Pressure Humidity
    00:00 -14°C° 0 mm 9 mps 751 mmHg 78%
    01:00 -14°C° 0 mm 9 mps 752 mmHg 81%
    02:00 -14°C° 0 mm 9 mps 753 mmHg 81%
    03:00 -13°C° 0 mm 8 mps 754 mmHg 82%
    04:00 -13°C° 0 mm 8 mps 755 mmHg 83%
    05:00 -13°C° 0 mm 7 mps 756 mmHg 84%
    06:00 -14°C° 0 mm 7 mps 757 mmHg 86%
    07:00 -14°C° 0 mm 6 mps 757 mmHg 87%
    08:00 -14°C° 0 mm 6 mps 758 mmHg 85%
    09:00 -13°C° 0 mm 7 mps 759 mmHg 83%
    10:00 -12°C° 0 mm 7 mps 759 mmHg 80%
    11:00 -12°C° 0 mm 7 mps 760 mmHg 76%
    12:00 -11°C° 0 mm 7 mps 760 mmHg 73%
    13:00 -9°C° 0 mm 7 mps 760 mmHg 69%
    14:00 -9°C° 0 mm 7 mps 760 mmHg 69%
    15:00 -9°C° 0 mm 7 mps 761 mmHg 69%
    16:00 -9°C° 0 mm 7 mps 761 mmHg 70%
    17:00 -11°C° 0 mm 7 mps 761 mmHg 69%
    18:00 -11°C° 0 mm 7 mps 761 mmHg 68%
    19:00 -11°C° 0 mm 8 mps 761 mmHg 68%
    20:00 -11°C° 0 mm 8 mps 762 mmHg 66%
    21:00 -11°C° 0 mm 8 mps 762 mmHg 65%
    22:00 -11°C° 0 mm 8 mps 762 mmHg 63%
    23:00 -11°C° 0 mm 8 mps 762 mmHg 63%

    25 November, Sunday

    Time Temperature Precipitation Wind Pressure Humidity
    00:00 -11°C° 0 mm 9 mps 762 mmHg 62%
    01:00 -11°C° 0 mm 9 mps 762 mmHg 61%
    02:00 -11°C° 0 mm 9 mps 762 mmHg 61%
    03:00 -11°C° 0 mm 9 mps 761 mmHg 61%
    04:00 -11°C° 0 mm 8 mps 761 mmHg 61%
    05:00 -11°C° 0 mm 8 mps 761 mmHg 60%
    06:00 -11°C° 0 mm 8 mps 761 mmHg 60%
    07:00 -11°C° 0 mm 8 mps 760 mmHg 60%
    08:00 -11°C° 0 mm 8 mps 760 mmHg 59%
    09:00 -10°C° 0 mm 9 mps 760 mmHg 58%
    10:00 -9°C° 0 mm 9 mps 760 mmHg 56%
    11:00 -8°C° 0 mm 9 mps 759 mmHg 58%
    12:00 -7°C° 0 mm 10 mps 759 mmHg 61%
    13:00 -5°C° 0 mm 10 mps 759 mmHg 63%
    14:00 -5°C° 0 mm 9 mps 758 mmHg 70%
    15:00 -5°C° 0 mm 8 mps 758 mmHg 76%
    16:00 -4°C° 0 mm 8 mps 758 mmHg 83%
    17:00 -4°C° 0 mm 8 mps 758 mmHg 85%
    18:00 -3°C° 0 mm 7 mps 758 mmHg 86%
    19:00 -3°C° 0 mm 7 mps 758 mmHg 88%
    20:00 -3°C° 0.1 mm 7 mps 758 mmHg 88%
    21:00 -3°C° 0.1 mm 6 mps 758 mmHg 88%
    22:00 -3°C° 0.1 mm 6 mps 758 mmHg 89%
    23:00 -2°C° 0 mm 5 mps 758 mmHg 88%

    26 November, Monday

    Time Temperature Precipitation Wind Pressure Humidity
    00:00 -4°C° 0 mm 5 mps 757 mmHg 88%
    01:00 -4°C° 0 mm 5 mps 757 mmHg 87%
    02:00 -4°C° 0 mm 5 mps 757 mmHg 86%
    03:00 -4°C° 0 mm 5 mps 757 mmHg 86%
    04:00 -4°C° 0 mm 5 mps 757 mmHg 85%
    05:00 -4°C° 0 mm 5 mps 757 mmHg 85%
    06:00 -4°C° 0 mm 5 mps 757 mmHg 84%
    07:00 -4°C° 0 mm 5 mps 756 mmHg 83%
    08:00 -4°C° 0 mm 5 mps 756 mmHg 80%
    09:00 -4°C° 0 mm 5 mps 756 mmHg 78%
    10:00 -4°C° 0 mm 6 mps 756 mmHg 75%
    11:00 -3°C° 0 mm 6 mps 756 mmHg 73%
    12:00 -3°C° 0 mm 6 mps 756 mmHg 72%
    13:00 -3°C° 0 mm 6 mps 756 mmHg 70%
    14:00 -3°C° 0 mm 6 mps 755 mmHg 70%
    15:00 -2°C° 0 mm 5 mps 755 mmHg 70%
    16:00 -2°C° 0 mm 5 mps 755 mmHg 71%
    17:00 -4°C° 0 mm 6 mps 754 mmHg 71%
    18:00 -4°C° 0 mm 6 mps 754 mmHg 72%
    19:00 -5°C° 0 mm 6 mps 754 mmHg 72%
    20:00 -5°C° 0 mm 6 mps 754 mmHg 71%
    21:00 -5°C° 0 mm 6 mps 753 mmHg 71%
    22:00 -5°C° 0 mm 6 mps 753 mmHg 70%
    23:00 -5°C° 0 mm 6 mps 753 mmHg 70%
    Show more